Miscellaneous Local Product
Issued by NWS North Platte, NE

Home | Current Version | Previous Version | Text Only | Print | Product List | Glossary On
Versions: 1 2 3 4 5 6 7 8 9 10 11 12 13 14 15 16 17 18 19 20 21 22 23 24 25 26 27 28 29 30 31 32 33 34 35 36 37 38 39 40 41 42 43 44 45 46 47 48 49 50
000
AXUS43 KLBF 281210
MISLBF


WESTERN AND NORTH CENTRAL NEBRASKA HOURLY WEATHER ROUNDUP
NATIONAL WEATHER SERVICE NORTH PLATTE NE
600 AM CST SAT FEB 28 2015

***STATIONS NOT REPORTING VARIABLES SUCH AS SKY/WEATHER OR
PRESSURE ARE PROVIDED BY THE NEBRASKA DEPARTMENT OF
ROADS...RAWS...AND APRS NETWORKS...AND ARE NOT UNDER
NATIONAL WEATHER SERVICE QUALITY CONTROL***

...OBSERVATIONS IN AND NEAR THE EASTERN PANHANDLE OF NEBRASKA...

CITY           SKY/WX    TMP DP  RH WIND       PRES   REMARKS
PINE RIDGE     CLEAR     10   4  76 S12       30.03R WCI  -5
CHADRON        CLEAR      6   1  80 SW8       30.04R WCI  -7
ALLIANCE       CLEAR      3   0  87 SE7       30.01R WCI  -9
SIDNEY         CLOUDY     0  -4  83 CALM      30.01R FOG
WHITECLAY        N/A      9   2  73 S12         N/A  WCI  -6
CRESCENT LAKE    N/A      6   2  82 S6          N/A  WCI  -4
LISCO            N/A      9   2  73 NE5         N/A  WCI   0
BIG SPRINGS      N/A     12   8  85 S12         N/A  WCI  -2
LEWELLEN         N/A      1  -2  88 S5          N/A  WCI  -9
$$

...OBSERVATIONS IN NORTH CENTRAL NEBRASKA...

CITY           SKY/WX    TMP DP  RH WIND       PRES   REMARKS
VALENTINE      CLEAR     12   5  73 S10       30.14R WCI  -1
THEDFORD       CLEAR     11   6  81 S6        30.15R WCI   1
AINSWORTH      CLEAR      9   4  83 S9        30.17R WCI  -5
O`NEILL        CLEAR      8   4  84 S10       30.27S WCI  -7
ORD            CLOUDY    11   4  73 SE10      30.28S WCI  -3
BROKEN BOW     CLOUDY    13   7  77 S10       30.22S WCI   0
BROWNLEE         N/A      6   1  79 S12         N/A  WCI  -9
SPRINGVIEW       N/A      9   3  76 SE7         N/A  WCI  -2
BREWSTER         N/A      9   7  89 S7          N/A  WCI  -2
ROSE             N/A     14  13  93 E8          N/A  WCI   3
NEWPORT          N/A     14  11  87 S9          N/A  WCI   2
SARGENT          N/A     10   6  83 SE3         N/A
COMSTOCK         N/A     15  10  80 S10         N/A  WCI   2
CHAMBERS         N/A      5 -17  35 S5          N/A  WCI  -4
EWING            N/A      8   4  82 S7          N/A  WCI  -3
$$

...OBSERVATIONS IN SOUTHWEST NEBRASKA AND FAR NORTHEAST COLORADO...

CITY           SKY/WX    TMP DP  RH WIND       PRES   REMARKS
WRAY           FLURRIES  14  10  83 SE9       30.07R WCI   2
IMPERIAL         N/A     13   7  77 S14       30.11R WCI  -2
OGALLALA       CLEAR     11   8  87 SE3       30.10R
NORTH PLATTE   CLOUDY    14   6  70 S15       30.17S WCI  -1
MCCOOK         FLURRIES  16   9  74 S12       30.20S WCI   3
LEXINGTON      FLURRIES  15   9  77 S13       30.24F WCI   1
PAXTON           N/A     12   8  85 SE8         N/A  WCI   0
BRADY            N/A     13   6  73 CALM        N/A
GOTHENBURG       N/A     13   6  74 SE8         N/A  WCI   2
CALLAWAY         N/A     12   7  79 S12         N/A  WCI  -2
$$

...NORTH PLATTE AREA...

CITY           SKY/WX    TMP DP  RH WIND       PRES   REMARKS
AIRPORT        CLOUDY    14   6  70 S15       30.17S WCI  -1
DOWNTOWN         N/A     12   6  76 S7G14       N/A  WCI   1
$$

...SOME WEATHER OBSERVATIONS FROM AROUND THE REGION...

CITY           SKY/WX    TMP DP  RH WIND       PRES   REMARKS
DENVER         PTCLDY     4   0  83 W5        29.88R WCI  -5
LARAMIE        PTCLDY    -2  -7  79 SW5       29.78R WCI -12
CHEYENNE       PTCLDY     3  -3  76 NW8       29.85R WCI -10
SCOTTSBLUFF    PTCLDY     6   2  83 E6        30.01R WCI  -4
RAPID CITY     CLEAR     15   8  73 N21       30.02R WCI  -2
PIERRE         CLEAR     11   3  70 S14       30.15R WCI  -5
WINNER         FAIR      12   2  64 S17       30.18F WCI  -5
SIOUX FALLS    CLEAR      4  -3  73 S13       30.37S WCI -13
OMAHA          CLEAR      7   1  76 SE6       30.50S WCI  -3
GRAND ISLAND   CLEAR      6   3  87 S8        30.36R WCI  -7
KANSAS CITY    CLOUDY    15   8  73 E7        30.51S WCI   5
WICHITA        LGT SNOW  17  12  80 SE8       30.40F WCI   7
HAYS           CLOUDY    14   3  62 SE10      30.30S WCI   1
LIBERAL        CLOUDY    14   7  73 SE10      30.19F WCI   1
GOODLAND       LGT SNOW  10   6  84 S13       30.09R FOG     WCI  -5
$$



USA.gov is the U.S. government's official web portal to all federal, state and local government web resources and services.